EHI
0 0 0 0 0 0 0 0 0 1 4 9 13 14 13 12 11 11 15 28 46 60 69 74 76 75 70 66 66 68 69 65 60 60 59 54 51 51 49 44 40 37 31 24
0 0 0 0 0 0 0 0 0 2 7 14 19 21 20 18 15 16 21 29 44 59 71 78 80 77 72 68 69 71 69 65 63 63 61 57 53 52 50 45 41 38 31 25
0 0 0 0 0 0 0 1 2 7 14 20 24 27 27 26 24 26 32 38 45 56 70 78 80 80 77 74 73 73 71 68 68 68 66 60 55 54 53 50 45 42 36 31
0 0 0 0 0 0 1 2 6 12 17 21 25 27 31 32 32 33 39 45 50 56 66 74 75 78 80 78 75 74 72 70 70 71 69 65 60 57 58 56 52 48 44 39
0 0 0 0 0 0 2 5 9 13 16 17 18 24 32 35 33 33 37 45 50 54 61 69 71 74 77 75 73 71 69 67 68 70 70 67 63 59 59 58 53 48 45 42
0 0 0 0 1 1 3 7 10 14 17 17 18 26 34 36 32 29 33 40 44 47 50 57 62 66 68 66 64 62 60 58 59 62 63 63 60 56 54 54 48 40 37 39
0 0 0 1 3 4 7 9 9 13 20 26 31 35 37 33 28 25 26 30 34 36 37 40 45 49 51 51 49 46 46 47 48 49 49 50 51 49 48 46 41 34 32 33
5 5 7 8 8 9 11 10 8 12 22 32 37 37 33 26 22 20 18 19 22 24 25 26 27 30 32 33 32 32 32 35 37 36 34 35 39 40 38 35 31 27 25 24
11 11 12 13 12 11 12 11 9 13 21 28 30 29 25 19 16 14 12 12 13 14 16 16 16 17 18 19 20 21 22 23 24 24 23 25 29 31 29 25 20 17 16 16
9 9 8 8 10 10 11 10 9 12 18 22 22 20 16 13 12 12 10 9 9 10 10 9 9 10 10 10 12 13 13 13 14 14 16 18 21 22 20 15 12 10 10 11
3 3 2 4 6 8 9 8 8 9 12 15 14 11 10 9 10 10 9 9 8 7 6 5 5 5 6 6 6 7 8 9 9 9 10 12 14 13 11 8 6 6 6 6
1 1 3 5 6 7 7 6 7 7 7 7 8 7 7 7 7 7 7 7 6 5 3 3 2 3 3 3 3 4 5 5 5 6 7 7 8 6 4 2 1 1 2 2
2 4 7 7 7 6 6 5 4 3 4 5 6 6 6 5 4 3 3 4 3 2 1 1 1 1 1 1 1 2 2 1 2 3 4 4 4 4 2 1 0 0 0 0
5 7 9 8 5 4 3 2 1 2 3 4 5 5 4 3 2 1 1 1 1 0 0 0 0 0 0 0 0 1 1 0 0 1 2 2 2 2 2 1 0 0 0 0
5 5 5 4 2 1 1 1 2 2 3 3 3 3 1 1 1 0 0 0 0 0 0 0 0 0 0 0 0 0 0 0 0 1 1 1 1 1 1 1 0 0 0 0
3 3 3 2 2 1 1 1 1 1 1 1 1 1 0 0 0 0 0 0 0 0 0 0 0 0 0 0 0 0 0 0 0 0 0 0 0 0 0 0 0 0 0 0
2 3 3 3 2 2 1 1 0 0 0 0 0 0 0 0 0 0 0 0 0 0 0 0 0 0 0 0 0 0 0 0 0 0 0 0 0 0 0 0 0 0 0 0
2 2 2 1 1 1 1 0 0 0 0 0 0 0 0 0 0 0 0 0 0 0 0 0 0 0 0 0 0 0 0 0 0 0 0 0 0 0 0 0 0 0 0 0
1 1 1 0 0 0 0 0 0 0 0 0 0 0 0 0 0 0 0 0 0 0 0 0 0 0 0 0 0 0 0 0 0 0 0 0 0 0 0 0 0 0 0 0
0 0 0 0 0 0 0 0 0 0 0 0 0 0 0 0 0 0 0 0 0 0 0 0 0 0 0 0 0 0 0 0 0 0 0 0 0 0 0 0 0 0 0 0
0 0 0 0 0 0 0 0 0 0 0 0 0 0 0 0 0 0 0 0 0 0 0 0 0 0 0 0 0 0 0 0 0 0 0 0 0 0 0 0 0 0 0 0
0 0 0 0 0 0 0 0 0 0 0 0 0 0 0 0 0 0 0 0 0 0 0 0 0 0 0 0 0 0 0 0 0 0 0 0 0 0 0 0 0 0 0 0
0 0 0 0 0 0 0 0 0 0 0 0 0 0 0 0 0 0 0 0 0 0 0 0 0 0 0 0 0 0 0 0 0 0 0 0 0 0 0 0 0 0 0 0
0 0 0 0 0 0 0 0 0 0 0 0 0 0 0 0 0 0 0 0 0 0 0 0 0 0 0 0 0 0 0 0 0 0 0 0 0 0 0 0 0 0 0 0
0 0 0 0 0 0 0 0 0 0 0 0 0 0 0 0 0 0 0 0 0 0 0 0 0 0 0 0 0 0 0 0 0 0 0 0 0 0 0 0 0 0 0 0
0 0 0 0 0 0 0 0 0 0 0 0 0 0 0 0 0 0 0 0 0 0 0 0 0 0 0 0 0 0 0 0 0 0 0 0 0 0 0 0 0 0 0 0
0 0 0 0 0 0 0 0 0 0 0 0 0 0 0 0 0 0 0 0 0 0 0 0 0 0 0 0 0 0 0 0 0 0 0 0 0 0 0 0 0 0 0 0
Wind_Speed
12 7 9 10 11 14 13 12 10 5 4 4 3 3 2 3 4 5 6 6 6 7 8 9 9 9 9 10 10 11 11 11 11 10 9 8 8 7 7 8 9 8 7 8
12 10 9 10 12 13 13 12 11 7 3 8 8 5 3 4 3 2 4 5 5 5 7 9 9 9 9 9 9 9 10 10 9 9 9 9 8 8 8 8 8 8 8 8
10 8 8 11 10 10 10 8 7 4 4 9 10 7 5 5 4 4 4 4 3 2 4 5 7 8 9 9 8 9 9 9 9 10 10 9 10 9 9 9 8 7 8 8
9 7 11 5 3 4 6 3 1 5 7 9 11 9 8 7 7 7 6 5 4 3 3 2 4 6 6 7 7 7 7 7 7 7 8 8 8 8 8 7 7 7 7 7
8 8 8 2 4 3 4 4 5 6 8 10 11 11 10 10 10 9 8 8 7 6 5 4 3 3 4 3 4 4 4 4 4 5 5 5 6 6 6 6 6 6 6 7
8 7 5 1 2 3 2 1 5 7 7 7 7 7 7 9 10 10 10 9 9 9 10 9 7 6 6 4 4 3 3 2 3 3 3 4 4 4 4 4 5 5 6 6
10 7 1 4 0 1 2 2 4 8 8 7 9 9 10 11 11 10 11 11 12 12 12 11 10 9 9 7 6 5 4 4 3 3 3 3 2 2 2 3 4 4 4 5
7 6 2 3 3 2 4 3 5 8 11 13 14 14 13 12 11 11 11 12 12 11 11 10 10 10 10 8 6 6 6 5 3 3 1 2 2 2 2 2 3 3 4 5
3 3 5 6 6 4 3 4 6 9 12 14 14 14 13 12 11 11 11 10 10 10 11 10 10 10 10 7 6 5 5 4 4 3 2 2 1 1 1 2 2 3 3 3
2 3 4 5 7 7 6 5 7 10 12 13 14 13 12 11 10 10 10 9 9 10 10 10 9 9 8 7 6 6 6 4 3 3 2 2 2 1 0 0 1 1 2 2
4 2 4 7 7 8 8 9 11 13 13 13 14 13 12 11 10 9 9 9 9 9 9 9 9 9 8 7 6 5 4 3 2 1 2 1 0 1 0 0 0 1 2 2
3 3 4 5 6 8 8 11 13 13 13 13 13 13 13 11 9 9 9 8 9 9 9 8 8 7 7 7 6 5 4 4 3 2 1 1 1 1 2 2 3 4 4 3
5 5 8 7 8 9 12 13 13 13 14 13 13 13 12 10 8 8 8 8 8 7 7 7 6 7 6 6 6 5 4 4 4 3 3 3 2 2 1 2 4 6 7 7
7 8 10 10 10 12 14 15 14 15 14 13 12 11 10 9 8 8 7 7 6 6 6 6 6 6 5 5 5 5 5 4 4 4 4 4 3 4 3 3 3 2 5 8
8 9 11 12 12 12 12 13 14 13 13 12 11 10 9 8 8 7 7 6 6 6 6 6 6 6 5 5 6 6 6 4 4 4 4 4 4 4 4 4 4 4 4 2
10 12 13 13 13 12 12 12 12 11 10 10 10 9 8 7 6 5 5 5 5 5 5 5 5 5 5 5 5 5 4 5 5 5 5 5 5 5 5 5 6 5 5 5
10 11 12 12 12 11 11 10 9 9 9 8 7 6 6 5 4 4 4 4 3 3 4 4 5 5 5 6 7 7 7 6 6 6 5 5 5 5 6 6 6 6 6 6
11 11 11 11 10 10 10 9 8 8 6 5 5 4 4 3 3 2 2 2 2 2 3 3 4 5 4 5 5 7 8 7 7 6 5 5 5 6 6 6 7 8 6 6
14 13 12 11 10 9 8 7 6 5 5 4 4 3 3 3 3 3 2 2 2 2 2 3 2 4 4 4 6 6 7 8 7 6 6 5 5 5 5 6 6 7 7 7
12 11 11 10 9 7 6 5 4 3 3 3 3 3 3 3 3 3 3 2 2 2 3 3 3 4 5 5 7 7 8 8 8 7 6 6 6 6 6 7 7 7 7 7
9 8 8 7 6 5 4 3 2 2 3 3 3 2 2 2 3 2 2 2 2 3 4 2 2 4 5 6 8 7 7 7 8 7 7 7 6 6 6 6 7 7 7 7
6 6 6 5 4 4 3 2 2 2 2 2 2 3 3 2 2 2 1 1 2 3 3 3 4 5 7 8 7 7 7 7 6 6 6 6 6 6 6 7 6 7 7 7
5 5 5 4 3 3 2 2 2 2 3 3 3 3 4 3 3 2 2 2 3 2 2 4 5 5 8 7 6 6 7 7 7 7 6 6 6 6 6 7 6 7 7 7
4 4 3 3 3 3 2 3 3 3 4 3 3 2 3 2 1 1 2 4 4 3 3 4 3 6 7 4 5 5 6 6 6 6 7 6 6 6 6 6 7 7 7 8
3 3 3 4 4 3 3 3 3 3 3 2 3 3 3 3 3 3 3 3 3 1 2 3 0 4 4 4 5 5 5 5 6 6 6 6 6 6 6 6 7 7 7 7
3 3 3 4 4 4 4 3 3 3 3 3 2 2 2 2 3 2 2 3 4 3 3 2 2 2 3 5 6 6 5 5 5 5 6 6 7 7 6 7 8 7 7 7
3 2 2 2 3 3 3 3 3 3 3 3 3 3 3 3 3 3 4 3 3 3 4 4 4 4 5 5 5 5 5 5 5 6 6 6 6 6 7 8 7 7 7 8
Wind_Direction
250 211 188 201 224 244 252 259 263 249 224 168 135 111 128 122 118 139 152 156 152 161 165 168 171 173 177 181 181 183 182 186 188 187 188 191 194 195 193 192 201 202 204 209
250 239 227 229 220 230 243 249 254 249 178 126 117 112 104 88 103 145 143 159 161 161 163 169 172 175 178 181 181 177 179 187 187 184 188 195 196 196 197 198 204 199 204 212
248 255 260 244 237 241 246 251 262 260 127 124 116 106 89 76 65 51 63 83 84 120 145 159 170 172 175 179 178 178 183 189 187 186 190 194 199 199 203 202 204 205 206 212
242 231 247 254 327 316 292 272 155 111 104 108 106 100 84 69 62 51 42 43 56 76 83 115 165 170 170 177 179 180 184 188 187 189 194 194 198 201 203 202 204 209 213 217
249 243 251 284 343 354 337 12 44 98 106 109 114 101 76 63 64 56 46 40 41 49 73 74 68 109 128 135 147 155 172 185 182 180 185 190 205 209 202 202 207 210 213 220
236 240 251 123 7 10 8 45 55 83 99 118 130 111 90 73 68 60 53 50 52 53 52 55 54 68 92 93 97 110 125 129 122 132 165 182 195 208 201 202 212 217 219 220
235 235 127 75 211 205 213 122 70 84 83 87 86 91 101 89 77 70 63 58 56 57 53 46 45 59 65 62 57 59 69 85 99 119 141 158 174 179 197 208 213 221 232 230
245 238 108 40 48 58 91 95 86 93 97 97 100 100 98 91 81 73 67 62 60 60 55 47 48 57 61 51 41 46 51 50 61 74 98 139 141 159 176 211 233 233 244 252
17 63 76 66 85 105 119 106 100 102 106 111 109 106 102 95 88 81 76 71 67 65 60 49 44 48 53 41 37 46 51 47 39 49 51 41 97 166 191 213 234 253 255 261
67 47 65 74 70 63 71 87 93 98 104 108 108 105 100 96 91 85 78 75 74 71 66 56 48 48 45 37 35 46 49 44 35 31 37 28 11 22 19 305 273 292 306 306
126 107 88 59 60 75 82 90 91 93 97 101 102 100 97 92 86 82 78 74 72 73 71 67 59 51 43 35 30 28 31 29 24 32 26 29 6 339 321 46 270 271 300 311
82 61 81 75 73 85 92 91 94 97 96 95 96 97 93 88 83 81 78 76 73 71 70 67 63 57 46 36 29 22 17 7 349 347 7 317 264 233 209 215 206 215 231 251
85 90 90 84 86 94 95 93 92 92 92 91 90 92 91 88 83 82 80 77 76 74 72 68 62 53 42 33 24 17 3 356 341 341 335 318 319 317 306 240 232 238 240 243
71 84 84 87 89 89 94 96 94 92 90 89 89 89 88 85 80 75 71 72 72 70 67 62 56 51 36 24 13 357 345 354 336 339 340 334 336 327 315 311 303 284 242 231
69 87 93 92 92 94 95 98 97 93 92 90 86 83 81 78 75 71 64 61 59 55 51 48 43 36 25 16 5 348 340 339 343 332 317 316 319 317 318 323 322 316 315 268
87 92 94 93 89 88 88 89 90 89 89 88 85 81 79 76 71 67 60 53 45 43 41 38 34 22 11 4 349 328 319 318 316 315 315 320 326 330 333 332 326 327 331 342
95 95 95 94 91 87 86 87 91 91 89 86 83 80 78 71 64 56 45 43 46 49 49 43 26 8 3 6 350 334 330 323 304 306 316 328 335 335 334 328 328 332 333 349
91 93 94 95 94 91 86 83 83 84 86 89 85 73 64 54 41 43 35 30 58 61 49 39 15 343 352 12 344 326 320 320 322 324 327 335 336 326 323 327 330 331 332 334
87 88 87 86 86 84 83 84 83 79 73 65 59 51 43 40 27 24 27 23 13 12 21 35 354 317 332 6 336 310 310 314 318 323 326 330 321 323 330 332 333 334 333 333
88 88 88 87 87 87 85 78 73 71 64 52 48 41 29 21 360 1 12 359 7 24 28 21 338 331 342 11 342 315 315 320 323 329 332 330 335 343 346 342 337 338 339 336
93 94 95 93 87 81 78 72 61 52 53 45 33 12 3 342 322 323 315 335 46 24 353 359 357 354 5 348 315 312 324 331 333 335 337 341 347 348 344 343 341 341 340 336
84 85 84 84 81 70 59 43 40 26 19 358 331 323 320 311 313 323 341 352 46 34 340 355 26 26 359 329 318 326 335 338 339 344 350 351 347 344 347 352 351 346 344 341
67 65 63 56 50 42 21 8 3 353 338 324 315 318 321 329 323 323 346 44 51 35 348 26 36 13 338 320 327 339 348 357 358 357 357 357 356 354 354 352 346 341 340 339
53 41 31 15 4 351 342 341 345 336 323 318 323 334 320 306 325 16 51 79 67 38 34 69 32 348 323 325 350 1 8 8 4 360 355 355 355 354 353 350 345 345 342 341
21 356 351 340 329 340 336 313 314 318 314 334 351 12 10 6 6 18 24 47 80 54 78 108 12 325 329 0 12 13 16 21 10 358 0 358 355 355 357 353 350 347 347 351
348 329 354 335 331 320 314 326 332 343 344 349 353 0 360 359 3 17 35 39 42 44 27 35 31 355 6 24 27 17 16 22 16 11 8 2 360 0 0 355 353 354 355 356
301 302 294 304 326 335 339 343 340 348 350 347 347 352 349 355 8 26 37 42 36 34 38 35 24 21 24 33 35 31 29 24 18 11 7 8 6 1 359 357 1 3 360 358